Location: Chandolas
(44.4033°N, 4.2533°E)
Time: 23:55:42
(UTC+00:00)

Cosmos 1408 - Pass Details

Date: 15 November 2019
Orbit: 470 x 497 km, 82.6° (Epoch: 06 December)

Event Time Altitude Azimuth Distance (km) Brightness Sun altitude
Rises 05:56:43 0° 209° (SSW) 2,567 6.1 -7.8°
Reaches altitude 10° 05:58:58 10° 219° (SW) 1,687 5.1 -7.4°
Maximum altitude 06:02:19 32° 284° (WNW) 867 3.3 -6.8°
Drops below altitude 10° 06:05:40 10° 349° (N) 1,689 5.0 -6.2°
Sets 06:07:56 0° 360° (N) 2,571 6.0 -5.9°
